Location: Newark
(40.5782°N, 9.2582°E)
Time: 10:02:59
(UTC+00:00)

Envisat - Visible Passes

Search period start: 15 September 2019 00:00
Search period end: 25 September 2019 00:00
Orbit: 764 x 766 km, 98.1° (Epoch: 15 September)

Date Brightness Start Highest point End Pass type
(mag) Time Alt. Az. Time Alt. Az. Time Alt. Az.
15 Sep 6.3 19:12:47 10° W 19:13:51 11° W 19:14:54 10° WNW visible
16 Sep 5.4 18:32:34 10° SSW 18:36:41 25° W 18:40:50 10° NW visible
17 Sep 3.9 17:54:47 10° S 17:59:44 56° W 18:04:45 10° NNW visible
18 Sep 6.0 18:59:51 10° WSW 19:02:27 14° W 19:05:03 10° WNW visible
19 Sep 5.0 18:20:53 10° SSW 18:25:21 31° W 18:29:52 10° NNW visible
20 Sep 3.4 17:43:25 10° S 17:48:28 71° WSW 17:53:33 10° NNW visible
21 Sep 5.9 18:47:41 10° SW 18:51:05 18° W 18:54:30 10° NW visible
22 Sep 4.5 18:09:18 10° SSW 18:14:02 40° W 18:18:49 10° NNW visible
24 Sep 5.5 18:35:46 10° SW 18:39:43 23° W 18:43:42 10° NW visible
